Other Public Products
Issued by NWS Grand Forks, ND

Home | Current Version | Previous Version | Text Only | Print | Product List | Glossary Off
Versions: 1 2 3 4 5 6 7 8 9 10 11 12 13 14 15 16 17 18 19 20 21 22 23 24 25 26 27 28 29 30 31 32 33 34 35 36 37 38 39 40 41 42 43 44 45 46 47 48 49 50

000
FPUS83 KFGF 200331
OPUFGF
PRAIRIE TO PINES WEATHER ROUNDUP
NATIONAL WEATHER SERVICE EASTERN NORTH DAKOTA/GRAND FORKS ND
1000 PM CDT TUE AUG 19 2014

 **SATELLITE DATA USED TO AUGMENT SKY COVER AT AUTOMATED STATIONS**
 *****  WEATHER ACROSS EASTERN NORTH DAKOTA  *****

CITY           SKY/WX    TMP DP  RH WIND       PRES   REMARKS
GRAND FORKS    CLEAR     73  64  73 E7        29.75R
GRAND FORKS AF CLEAR     71  68  91 SE6       29.76R
GRAND CITY NWS   N/A     66 N/A N/A SE5         N/A
BUXTON           N/A     71  69  93 E3          N/A
DEVILS LAKE    CLEAR     73  64  73 SE7       29.74S
FARGO          CLEAR     72  64  76 SE3       29.76R
WAHPETON ARPT  PTCLDY    70  61  73 E3        29.78S
$$

 *****  WEATHER ACROSS CENTRAL AND WESTERN NORTH DAKOTA  *****

CITY           SKY/WX    TMP DP  RH WIND       PRES   REMARKS
JAMESTOWN      CLEAR     68  64  87 SE5       29.76R
BISMARCK       MOCLDY    72  64  76 E7        29.72S
MINOT          CLEAR     68  60  75 E5        29.71R
MINOT AFB      CLEAR     68  63  85 E7        29.70S
GARRISON         N/A     73  65  75 SE9       29.71S
WILLISTON      CLEAR     79  60  52 SE12      29.65S
DICKINSON      PTCLDY    69  60  73 S6        29.70R
HETTINGER      MOCLDY    72  57  59 SE9       29.74R
$$

 *****  OTHER OBSERVATIONS NORTHEAST NORTH DAKOTA  *****

CITY           SKY/WX    TMP DP  RH WIND       PRES   REMARKS
WALHALLA         N/A     68  68 100 SE5         N/A
LANGDON        FAIR      68  64  88 SE8       29.77S
CAVALIER       FAIR      72  64  78 SE5       29.75S
GRAFTON        FAIR      68  64  88 SE6       29.75S
CANDO          FAIR      64  63  94 SE7       29.75S
FORT TOTTEN      N/A     71  63  76 SE3       29.95
ROLLA          CLOUDY    59  59 100 CALM      29.76F
RUGBY          NOT AVBL
 ***** THE ABOVE OBSERVATIONS ARE NON NWS ARE NOT QUALITY
        CONTROLLED AND MAY MIS-REPORT RAIN FOR SNOW...
$$

 *****  OTHER OBSERVATIONS SOUTHEAST NORTH DAKOTA *****

CITY           SKY/WX    TMP DP  RH WIND       PRES   REMARKS
COOPERSTOWN    NOT AVBL
VALLEY CITY    FAIR      72  72 100 S7        29.78R
OAKES          NOT AVBL
GWINNER        CLEAR     70  70 100 E6        29.79R
SHEYENNE NWR     N/A     67  65  94 E5        29.95S
BUFFALO          N/A     68  63  85 E8          N/A
WYNDMERE       NOT AVBL
 ***** THE ABOVE OBSERVATIONS ARE NON NWS ARE NOT QUALITY
       CONTROLLED AND MAY MIS-REPORT RAIN FOR SNOW...
$$

  *****  WEATHER ACROSS NORTHERN MINNESOTA  *****

CITY           SKY/WX    TMP DP  RH WIND       PRES   REMARKS
FLAG ISLAND    CLEAR     68  61  77 CALM      29.79R
WARROAD        CLEAR     66  63  88 SE7       29.80S
ROSEAU         CLEAR     66  61  82 E8        29.79S
HALLOCK        CLEAR     68  63  83 SE6       29.76R
THF RVR FALLS  CLEAR     64  61  88 E6        29.79S
HALSTAD          N/A     66  63  89 S5          N/A
FOSSTON        CLEAR     61  55  82 CALM      29.81R
BAUDETTE       CLEAR     63  61  93 CALM      29.80R
WASKISH        CLEAR     61  59  94 CALM      29.81S FOG
CROOKSTON      CLEAR     70  63  78 SE5       29.78R
$$
  *****  WEATHER ACROSS CENTRAL AND WEST MINNESOTA  *****

CITY           SKY/WX    TMP DP  RH WIND       PRES   REMARKS
BEMIDJI        CLEAR     62  60  94 E3        29.81R
PARK RAPIDS    CLEAR     65  61  87 CALM      29.81R
WADENA         CLEAR     64  63  94 CALM      29.81R
DETROIT LAKES  CLEAR     68  63  83 E3        29.82R
MOORHEAD       CLEAR     72  70  94 CALM      29.78S
FERGUS FALLS   CLEAR     70  61  73 CALM      29.78S
ELBOW LAKE     FAIR      70  65  85 CALM      29.79S
MORRIS MN      CLEAR     68  64  88 SE3       29.79S
STAPLES        CLEAR     66  63  88 CALM      29.81S
WHEATON        PTCLDY    64  63  94 SE5       29.80S
$$
  *****  WEATHER ELSEWHERE ACROSS MINNESOTA  *****

CITY           SKY/WX    TMP DP  RH WIND       PRES   REMARKS
DULUTH         CLOUDY    65  60  84 N5        29.81R
INTRNTL FALLS  CLEAR     54  54 100 CALM      29.81R
ELY            CLOUDY    63  61  94 CALM      29.82S
CLOQUET        CLEAR     61  57  88 CALM      29.82R
BRAINERD       CLEAR     64  62  93 CALM      29.81R
HIBBING        CLOUDY    62  59  90 CALM      29.82R
ALEXANDRIA     CLEAR     68  64  87 CALM      29.82R
SAINT CLOUD    CLEAR     70  65  84 CALM      29.79R
MINNEAPOLIS    PTCLDY    73  64  73 CALM      29.78R
$$

  *****  WEATHER ACROSS SOUTH DAKOTA  *****

CITY           SKY/WX    TMP DP  RH WIND       PRES   REMARKS
SIOUX FALLS    PTCLDY    74  63  68 CALM      29.82R
BROOKINGS      NOT AVBL
WATERTOWN      CLEAR     71  63  75 CALM      29.81R
HURON          PTCLDY    74  61  63 SE10      29.77R
SISSETON         N/A     68  65  90 S5        29.77R
ABERDEEN       PTCLDY    67  64  90 E6        29.77R
MITCHELL       PTCLDY    70  65  84 SE6       29.79R
PIERRE         MOCLDY    76  61  59 SE12      29.72S
MOBRIDGE       PTCLDY    73  63  70 SE10      29.72R
RAPID CITY     MOCLDY    72  60  66 E7        29.75R
$$

  *****  SOME WEATHER IN NEARBY STATES *****

CITY           SKY/WX    TMP DP  RH WIND       PRES   REMARKS
GLASGOW MT     PTCLDY    82  44  26 NW3       29.60R
GREAT FALLS MT MOCLDY    72  42  34 NW6       29.70R
CHEYENNE WY    MOCLDY    63  50  62 SW9       29.99R
SCOTTSBLUFF NE MOCLDY    69  57  65 SE6       29.82S
OMAHA NE       MOCLDY    79  64  60 S5        29.80R
DES MOINES IA  CLEAR     78  65  63 CALM      29.81R
DAVENPORT IA   CLEAR     68  64  87 W6        29.81R
CHICAGO IL     PTCLDY    74  64  71 NW7       29.76R
EAU CLAIRE WI  CLOUDY    67  65  93 W3        29.77R
LA CROSSE WI   PTCLDY    71  66  84 CALM      29.77R
$$

  *****  SOME NATIONAL WEATHER *****

CITY           SKY/WX    TMP DP  RH WIND       PRES   REMARKS
LA GUARDIA NY  MOCLDY    72  65  78 SE7       29.92S
RALEIGH NC     PTCLDY    75  71  87 VRB5      29.89S
ATLANTA GA     MOCLDY    76  69  79 W6        29.96R
NEW ORLEANS LA MOCLDY    82  74  76 CALM      29.99R
OKLAHOMA CITY  PTCLDY    83  67  58 S12       29.87R
ALBUQUERQUE NM CLOUDY    74  51  44 VRB6      30.03R
SALT LAKE CITY MOCLDY    70  55  59 SE9       29.87S
LOS ANGELES CA MOCLDY    69  61  75 W10       29.86R
BOISE ID       CLOUDY    79  45  29 NE14      29.73F
SEATTLE WA     MOCLDY    70  58  65 SW10      29.81R
$$

*** WEATHER ACROSS MANITOBA...SASKATCHEWAN AND ONTARIO ***
                ***ONTARIO***

CITY           SKY/WX    TMP DP  RH WIND       PRES   REMARKS
GERALDTON      CLOUDY    63  59  88 E5        29.82R
THUNDER BAY    DRIZZLE   59  59 100 SW2       29.80S FOG
SIOUX LOOKOUT  CLEAR     57  55  94 CALM      29.82R
TORONTO        MOCLDY    64  57  77 E7        29.84F
BIG TROUT LK   CLEAR     68  57  68 SE8       29.82R HAZE
PICKLE LAKE    NOT AVBL
DRYDEN         CLEAR     63  59  88 W5        29.82R
KENORA         PTCLDY    66  61  82 S3        29.82S
$$
                *** MANITOBA***

CITY           SKY/WX    TMP DP  RH WIND       PRES   REMARKS
BRANDON        PTCLDY    64  63  94 E8        29.73S
DAUPHIN        CLEAR     66  63  88 SE7       29.72R
ISLAND LAKE    PTCLDY    72  63  73 SE6       29.74R
PILOT MOUND      N/A     68  64  88 SE8         N/A
THE PAS        PTCLDY    72  63  73 SE8       29.64R
THOMPSON       MOCLDY    66  64  94 CALM      29.66R
WINNIPEG       PTCLDY    70  61  73 SE8       29.76R
LYNN LAKE      LGT RAIN  57  55  94 MISG      29.70S
CHURCHILL      CLOUDY    46  43  87 SE14G21   29.83R
GILLAM         CLOUDY    63  61  94 E3        29.71R
$$
                ***SASKATCHEWAN***

CITY           SKY/WX    TMP DP  RH WIND       PRES   REMARKS
ESTEVAN        PTCLDY    70  61  73 E8        29.68F
KINDERSLEY     CLOUDY    64  59  82 NE9       29.67R
LLOYDMINSTER   CLOUDY    66  59  77 SW5       29.67R
PRINCE ALBERT  MOCLDY    61  61 100 N3        29.63F
REGINA         TSTM      73  59  60 SW6       29.68R


USA.gov is the U.S. government's official web portal to all federal, state and local government web resources and services.